Location: Betra
(48.4113°N, 8.6634°E)
Time: 14:39:52
(UTC+00:00)

Cosmos 1850 Rocket - Pass Details

Date: 15 August 2024
Orbit: 751 x 783 km, 74.0° (Epoch: 17 September)

Event Time Altitude Azimuth Distance (km) Brightness Sun altitude
Rises 20:45:56 0° 320° (NW) 3,267 9.0 -18.1°
Reaches altitude 10° 20:49:39 10° 294° (WNW) 2,338 7.5 -18.5°
Maximum altitude 20:51:57 13° 268° (W) 2,136 6.8 -18.7°
Drops below altitude 10° 20:54:15 10° 242° (WSW) 2,336 6.6 -19.0°
Sets 20:57:59 0° 215° (SW) 3,260 7.1 -19.4°
